Regional Weather Roundup
Issued by NWS State College, PA

Home | Current Version | Previous Version | Text Only | Print | Product List | Glossary On
Versions: 1 2 3 4 5 6 7 8 9 10 11 12 13 14 15 16 17 18 19 20 21 22 23 24 25 26 27 28 29 30 31 32 33 34 35 36 37 38 39 40 41 42 43 44 45 46 47 48 49 50
000
ASUS41 KCTP 030603
RWRCTP

REGIONAL WEATHER ROUNDUP
NATIONAL WEATHER SERVICE STATE COLLEGE PA
200 AM EDT SUN MAY 03 2015

Note: "fair" indicates few or no clouds below 12,000 feet with no
significant weather and/or obstructions to visibility.

* = STATION THAT DOES NOT REPORT PRECIPITATION /E.G. RAIN...SNOW...ETC/
    THUNDER OR FOG.

PAZ002>004-007>009-013>016-020>023-029>032-030700-
WESTERN PENNSYLVANIA

CITY           SKY/WX    TMP DP  RH WIND       PRES   REMARKS
ERIE           CLEAR     53  36  52 S6        30.02F
MEADVILLE      CLEAR     54  35  48 CALM      30.05S
FRANKLIN*      CLEAR     52  32  46 S7        30.07S
NEW CASTLE     FAIR      48  42  80 CALM      30.07S
BEAVER COUNTY  NOT AVBL
BUTLER*        CLEAR     48  37  66 CALM      30.08F
PITTSBURGH INT PTCLDY    54  42  64 CALM      30.06S
PITTSBURGH     MOCLDY    59  37  44 CALM      30.06R
INDIANA*       CLOUDY    45  39  81 CALM      30.10S
LATROBE        CLEAR     48  41  76 CALM      30.09S
WASHINGTON CO* MOCLDY    46  41  81 CALM      30.08S
$$

PAZ004>006-010>012-017>019-024>028-033>037-041-042-045-046-049>053-030700-
CENTRAL PENNSYLVANIA

CITY           SKY/WX    TMP DP  RH WIND       PRES   REMARKS
BRADFORD       PTCLDY    40  30  67 CALM      30.05F
DUBOIS         CLEAR     54  30  40 CALM      30.06S
CLEARFIELD     CLEAR     49  31  49 N3        30.06F
JOHNSTOWN      CLEAR     57  30  35 CALM      30.08S
ALTOONA        CLEAR     51  34  52 CALM      30.07S
STATE COLLEGE  CLEAR     56  29  34 CALM      30.05F
WILLIAMSPORT   CLEAR     49  39  68 N3        30.04R
SELINSGROVE    CLEAR     50  43  77 CALM      30.04R
FT INDIANTOWN  PTCLDY    50  41  71 CALM      30.01R
CAPITAL CITY   PTCLDY    56  44  64 N5        30.00R
HARRISBURG     PTCLDY    54  45  71 CALM      29.99R
YORK           PTCLDY    58  40  51 W5        30.00R
$$

PAZ038>040-043-044-047-048-054-055-060>062-067>071-030700-
EASTERN PENNSYLVANIA

CITY           SKY/WX    TMP DP  RH WIND       PRES   REMARKS
SCRANTON       CLEAR     51  31  46 SE3       30.02S
MOUNT POCONO   CLEAR     42  31  64 CALM      30.03S
ALLENTOWN      CLOUDY    52  46  80 E5        30.03R
QUAKERTOWN*    CLOUDY    52  46  82 CALM      30.04S
READING        PTCLDY    51  43  74 N3        30.00S
LANCASTER      CLOUDY    52  46  80 E7        30.01R
COATESVILLE    CLOUDY    50  48  93 CALM      30.03S
POTTSTOWN      MOCLDY    49  46  90 CALM      30.04S
BLUE BELL      PTCLDY    52  45  76 CALM      30.03S
DOYLESTOWN     MOCLDY    48  50 100 CALM      30.03S
WILLOW GROVE   NOT AVBL
NORTH PHILA    CLOUDY    52  39  61 SE5       30.05S
PHILADELPHIA   PTCLDY    53  43  68 S7        30.04S
$$



USA.gov is the U.S. government's official web portal to all federal, state and local government web resources and services.